METOP-C

Last updated on Wed Sep 09 2026 00:02:41 GMT+0000 (Coordinated Universal Time)

1 43689U 18087A 26251.54757432 .00000054 00000+0 44465-4 0 9992 2 43689 98.6965 309.6111 0000707 50.1766 309.9474 14.21509220406670
UTC large
Height (km)
Speed (km/s)
/
Latitude / Longitude
Inclination (degrees)
Orbital Period (minutes)
Azimuth
Elevation
Range (km)
Doppler Factor

Next 0 passes for location: London (51.5072 / 0.1276)

No passes found over London.
METOP-C